{"data":{"norad_id":39155,"epoch":"2026-05-24T21:59:25.824768Z","epoch_age_seconds":85312,"freshness":"FRESH","line1":"1 39155U 13019A   26144.91627112 -.00000037  00000+0  00000+0 0  9992","line2":"2 39155  65.4077  74.3848 0023600 236.0366 123.7299  2.13103066101787","mean_motion":2.13103066,"eccentricity":0.00236,"inclination_deg":65.4077,"raan_deg":74.3848,"arg_perigee_deg":236.0366,"mean_anomaly_deg":123.7299,"bstar":0,"rev_number":10178,"period_min":675.7293674977,"perigee_km":19069.603625142,"apogee_km":19190.001098931,"semimajor_km":25507.939362036,"source":"CELESTRAK","updated_at":"2026-05-25T13:38:23.892958Z"}}